Regional Weather Roundup
Issued by NWS Pendleton, OR

Home | Current Version | Previous Version | Text Only | Print | Product List | Glossary On
Versions: 1 2 3 4 5 6 7 8 9 10 11 12 13 14 15 16 17 18 19 20 21 22 23 24 25 26 27 28 29 30 31 32 33 34 35 36 37 38 39 40 41 42 43 44 45 46 47 48 49 50
000
ASUS46 KPDT 301225
RWRPDT
PENDLETON REGIONAL WEATHER ROUNDUP
NATIONAL WEATHER SERVICE PENDLETON OREGON
500 AM PDT SAT MAY 30 2015

NOTE: FAIR INDICATES FEW OR NO CLOUDS BELOW 12,000 FEET WITH NO
SIGNIFICANT WEATHER AND/OR OBSTRUCTIONS TO VISIBILITY.

# INDICATES UNOFFICIAL STATION AND DATA

WAZ520-301310-
EAST SLOPES OF WASHINGTON CASCADES

CITY            SKY/WX      TMP DP  RH  WIND    PRES   REMARKS
#BULLFROG 2SW   N/A         54  51  90  S1      27.52S
#BUMPING DAM    N/A         53  N/A N/A CALM    N/A
#CLE ELUM HS    N/A         54  54  100 CALM    29.84F
#CLE ELUM LAKE  N/A         56  53  90  CALM    29.79R
#CLIFFDEL 2NW   N/A         54  51  90  N1      N/A
#GLENWOOD       N/A         48  47  96  CALM    29.81F
#NELSON         N/A         54  53  96  CALM    29.83S
#NELSON 3SW     N/A         52  50  93  CALM    30.00F
#NILE           N/A         53  52  96  CALM    29.11F
#RONALD 2NW     N/A         56   0  10  N1      29.80S
#SNOWDEN        N/A         52  43  71  CALM    N/A
#TEANAWAY 4NE   N/A         53  53  100 CALM    N/A
#TROUT LAKE 1NE N/A         52  50  93  CALM    29.81S
$$

WAZ521-301310-
SIMCOE HIGHLANDS

CITY            SKY/WX      TMP DP  RH  WIND    PRES   REMARKS
#BICKLETON HS   N/A         62  27  26  W7      N/A
#CENTERVILLE 4W N/A         62  52  70  NW7     29.63S
#CENTERVILLE 1SWN/A         60  49  67  CALM    29.76R
#GOLDENDALE     N/A         61  49  65  SW3     N/A
#GOLDENDALE 5WNWN/A         58  51  77  W3      29.78S
#GOODNOE HILLS  N/A         65  53  65  W12     N/A
#LYLE 6NE       N/A         58  51  77  CALM    29.78S
$$

WAZ026-301310-
KITTITAS VALLEY

CITY            SKY/WX      TMP DP  RH  WIND    PRES   REMARKS
ELLENSBURG AP   PTCLDY      59  52  78  E5      29.86S
6HR MIN TEMP:   57; 6HR MAX TEMP:   69;

YTC-OPS AREA    N/A         58  51  77  W20     29.87F
6HR MIN TEMP:   58; 6HR MAX TEMP:   65;

#ELLENSBURG CWU N/A         57  52  83  CALM    29.75S
#ELLENSBURG 3NE N/A         57  52  83  E1      29.87S
#ELLENSBURG 1E  N/A         54  49  83  CALM    N/A
#KITTITAS 3S    N/A         54  51  90  CALM    29.78S
#THORP 6N       N/A         58  53  83  NW14    29.79F
$$

WAZ027-301310-
YAKIMA VALLEY

CITY            SKY/WX      TMP DP  RH  WIND    PRES   REMARKS
SUNNYSIDE AP    CLOUDY      60  55  84  CALM    29.82S
YAKIMA AIRPORT  PTCLDY      59  53  80  W7      29.84S
6HR MIN TEMP:   59; 6HR MAX TEMP:   73;

#DONALD 2NE     N/A         67  45  45  CALM    28.68S
#GRANDVIEW      N/A         63  55  75  CALM    29.79S
#MABTON         N/A         68  56  65  CALM    29.81S
#NACHES 2SW     N/A         63  55  75  W6      29.88S
#OUTLOOK DOT    N/A         N/A N/A N/A N2      N/A
#SELAH 8E       N/A         54  48  80  E5      N/A
#TERRACE HTS    N/A         66  53  63  NE1     29.73S
#TOPPENISH      N/A         66  56  70  CALM    29.70S
#WAPATO 4NE     N/A         67  45  45  CALM    28.68S
#WEST VALLEY    N/A         63  55  75  CALM    29.77R
#W YAKIMA       N/A         63  55  75  CALM    29.78R
#WHITE SWAN 5E  N/A         59  54  83  CALM    29.78S
$$

WAZ028-301310-
LOWER COLUMBIA BASIN...WASHINGTON

CITY            SKY/WX      TMP DP  RH  WIND    PRES   REMARKS
PASCO           CLOUDY      71  54  55  S7      29.81F
6HR MIN TEMP:   69; 6HR MAX TEMP:   78;

RICHLAND AWOS   CLOUDY      66  57  73  N3      29.81S
#BASIN CITY 5SW N/A         64  57  78  CALM    29.81F
#BENTON CITY    N/A         65  55  70  CALM    29.70S
#CONNELL 5N     N/A         62  52  70  E2      29.78S
#CONNELL 5NW    N/A         62  53  72  E1      29.74F
#ELTOPIA 6NW    N/A         65  56  73  CALM    28.80S
#KAHLOTUS       N/A         62  52  70  S10     29.78F
#KENNEWICK      N/A         54  51  90  S1      27.52S
#KENNEWICK 3S   N/A         68  55  63  CALM    29.79R
#PASCO-BROADMOORN/A         67  58  73  W1      29.69S
#PATERSON       N/A         65  56  73  CALM    29.78S
#PROSSER        N/A         66  53  63  CALM    29.78R
#SAGEMOOR 2W    N/A         64  58  81  CALM    29.64S
#TOUCHET 2S     N/A         66  57  73  S2      29.77F
#WEST PASCO     N/A         69  55  61  CALM    29.78S
$$

WAZ029-301310-
FOOTHILLS OF THE BLUES...WASHINGTON

CITY            SKY/WX      TMP DP  RH  WIND    PRES   REMARKS
WALLA WALLA AP  CLOUDY      71  52  51  S10     29.85F
6HR MIN TEMP:   67; 6HR MAX TEMP:   77;

#DAYTON SCHOOL  N/A         64  48  56  CALM    29.89S
#LOWDEN 2SE     N/A         64  57  78  CALM    29.79F
#PLEASANT VIEW 1N/A         64  52  65  CALM    29.81F
#PRESCOTT       N/A         63  58  84  CALM    29.78S
#SUDBURY        N/A         63  N/A N/A CALM    N/A
#WHITMAN COLLEGEN/A         68  54  61  SE5     29.84S
#WALLA WALLA U  N/A         69  55  61  SE2     29.79F
#WHITMAN MISSIONN/A         66  56  70  CALM    29.81S
$$

WAZ030-301310-
BLUE MOUNTAINS...WASHINGTON

CITY            SKY/WX      TMP DP  RH  WIND    PRES   REMARKS
#DIXIE 5SE      N/A         64  45  50  SW1     29.87S
$$

ORZ009-041-WAZ024-301310-
COLUMBIA RIVER GORGE

CITY            SKY/WX      TMP DP  RH  WIND    PRES   REMARKS
HOOD RIVER AP   PTCLDY      59  54  83  W3      29.88S
THE DALLES AP   PTCLDY      64  53  67  N14     29.84S
6HR MIN TEMP:   64; 6HR MAX TEMP:   74;

#ARLINGTON AIRPON/A         66  53  63  SW3     29.79S
#ARLINGTON HS   N/A         69  54  59  CALM    29.71S
#CELILO DOT     N/A         68  53  59  W5      N/A
#MOSIER 1S      N/A         58  48  69  W5      29.85S
#MURDOCK        N/A         64  56  75  NW12    29.85R
#RUFUS DOT      N/A         71  52  51  W16     N/A

$$

ORZ510-301310-
NORTH CENTRAL OREGON

CITY            SKY/WX      TMP DP  RH  WIND    PRES   REMARKS
#CHENOWITH 1W   N/A         59  52  78  NW24    N/A
#COW CYN RST AREN/A         61  48  62  NW6     N/A
#DUFUR 9E       N/A         63  52  67  W5      29.83S
#GRASS VALLEY 1SN/A         58  52  80  CALM    29.83R
#KENT DOT       N/A         58  49  72  SW1     N/A
#MAUPIN SCHOOL  N/A         63  56  78  CALM    29.88R
#MORO SCHOOL    N/A         62  57  84  W6      29.89S
#SHANIKO 5WSW   N/A         60  48  64  CALM    N/A
#SHANIKO 4NW    N/A         59  51  75  NW6     29.95S
#TYGH VALLEY 2NEN/A         58  52  80  CALM    29.81R
#WAPANITIA AIRPON/A         62  55  78  N2      29.81S
#WASCO DOT      N/A         59  53  80  CALM    N/A
#WASCO AIRPORT  N/A         61  52  72  W5      N/A
#WASCO 5NE      N/A         60  52  75  CALM    29.79S
$$

ORZ511-301310-
CENTRAL OREGON

CITY            SKY/WX      TMP DP  RH  WIND    PRES   REMARKS
BEND AIRPORT    CLOUDY      61  50  67  SW6     29.94F
MADRAS AIRPORT  CLOUDY      59  55  87  CALM    29.94R
PRINEVILLE AP   MOCLDY      57  54  90  NW7     29.94S
#BEND 1SW       N/A         57  53  86  CALM    N/A
#BEND-AWBREY    N/A         60  53  78  S2      29.78S
#BEND-KIM LN    N/A         59  53  80  SW2     29.92F
#CROOKED RVR RANN/A         60  53  78  CALM    29.79F
#LAKE BILLY CHINN/A         61  40  46  CALM    29.98S
#POWELL BUTTE 3EN/A         59  53  80  E6      N/A
#POWELL BUTTE   N/A         60  50  69  NW6     29.58F
#PRINEVILLE 3N  N/A         55  53  93  SW2     29.77S
#WARM SPRINGS   N/A         63  56  78  SW1     29.88R

$$


ORZ509-301310-
EAST SLOPES OF OREGON CASCADES

CITY            SKY/WX      TMP DP  RH  WIND    PRES   REMARKS
#BLUE BOX PASS  N/A         54   0  11  NW1     N/A
#CAMP SHERMAN   N/A         57  51  80  CALM    29.77F
#LA PINE 4NW    N/A         50  47  89  CALM    29.86F
#SISTERS AIRPOR N/A         56  56  100 N1      30.17S
#SISTERS ODOT   N/A         56  N/A N/A CALM    N/A
#SISTERS 1NW    N/A         54  50  86  N5      N/A
#SISTERS 3N     N/A         54  50  86  CALM    29.95S
#SUNRIVER       N/A         52  51  96  CALM    29.70F
#TUMALO 3W      N/A         57  50  77  N2      29.67S
#WANOGA BUTTE D N/A         54  31  41  W5      N/A

$$

ORZ044-301310-
LOWER COLUMBIA BASIN...OREGON

CITY            SKY/WX      TMP DP  RH  WIND    PRES   REMARKS
HERMISTON       CLOUDY      67  54  63  S7      29.82S
6HR MIN TEMP:   65; 6HR MAX TEMP:   72;

#BOARDMAN SCHOOLN/A         67  56  68  CALM    29.83R
#ECHO 8SW       N/A         66  55  68  SW7     29.84S
#IONE SCHOOL    N/A         68  51  55  W1      29.83S
#IRRIGON 4NW    N/A         65  58  78  E3      N/A
#UMATILLA SCHOOLN/A         63  62  97  CALM    29.85S
#UMATILLA       N/A         64  54  70  CALM    29.74S
$$

ORZ507-301310-
NORTHERN FOOTHILLS OF THE BLUES

CITY            SKY/WX      TMP DP  RH  WIND    PRES   REMARKS
PENDLETON AIRPT CLOUDY      64  54  70  E6      29.87S
6HR MIN TEMP:   62; 6HR MAX TEMP:   69;

#ADAMS 3WNW     N/A         63  55  75  E1      29.79S
#ATHENA         N/A         63  55  75  CALM    29.81F
#CAYUSE         N/A         65  55  70  E3      29.79S
#HELIX SCHOOL   N/A         60  54  81  CALM    29.80S
#HELIX 3N       N/A         61  53  75  SE6     29.86S
#HOLDMAN 6E     N/A         63  53  70  CALM    29.61S
#M-F FERNDALE   N/A         67  53  61  CALM    29.84F
#M-F GROVE ELEM N/A         68  51  55  CALM    29.84S
#M-FREEWATER 5SEN/A         67  54  63  CALM    29.86F
#PENDLETON DNTN N/A         65  51  60  E2      29.87R
#PDT AQUATIC CTRN/A         66  50  56  CALM    29.89S
#PENDLETON 5NE  N/A         60  55  84  CALM    29.84S
#PDT SUNRIDGE   N/A         63  55  75  CALM    29.88S
#PENDLETON 7NW  N/A         62  54  75  CALM    29.59F
#PILOT ROCK     N/A         64  51  63  CALM    29.90F
#TUTUILLA       N/A         62  54  75  CALM    29.83F
#UMAPINE 2E     N/A         69  56  63  CALM    29.80F
#WESTON SCHOOL  N/A         64  51  63  CALM    29.84F

$$

ORZ508-301310-
SOUTHERN FOOTHILLS OF THE BLUES

CITY            SKY/WX      TMP DP  RH  WIND    PRES   REMARKS
#AJAX           N/A         63  48  58  SW2     29.84S
#CONDON SCHOOL  N/A         60  55  84  CALM    29.88F
#CONDON 5W      N/A         60  49  67  W6      29.91S
#FOSSIL SCHOOL  N/A         59  54  83  CALM    29.86F
#HEPPNER EOC    N/A         63  54  72  CALM    29.72F
#HEPPNER 4NE    N/A         62  53  72  SW3     29.78F
#LEXINGTON 2SE  N/A         65  56  73  CALM    29.85S
#RUGGS 5NE      N/A         60  52  75  CALM    30.07S
#RUGGS 2SW      N/A         61  52  72  SW6     29.80S

$$

ORZ502-503-301310-
BLUE MOUNTAINS

CITY            SKY/WX      TMP DP  RH  WIND    PRES   REMARKS
#BATTLE MTN DOT N/A         56  54  93  S8      N/A
#HEPPNER 15SE   N/A         57  50  77  CALM    29.87S
#LONG CREEK HS  N/A         54  53  96  CALM    29.92F
#N POWDER DOT   N/A         56  55  96  S3      N/A
#PIKES PEAK     N/A         62  49  62  SW12    27.99S
#TOLLGATE       N/A         51  47  86  CALM    29.94F
#TROY SCHOOL    N/A         59  57  93  CALM    29.72S
#UKIAH          N/A         54  52  93  CALM    29.88S
#WESTON 4E      N/A         60  50  69  E2      29.74S
$$

ORZ505-301310-
JOHN DAY BASIN

CITY            SKY/WX      TMP DP  RH  WIND    PRES   REMARKS
JOHN DAY        MOCLDY      58  55  90  E12     29.99S
#JOHN DAY KJDY  N/A         59  55  87  S1      29.88R
#DAYVILLE SCHOOLN/A         61  54  78  CALM    29.93S
#MITCHELL       N/A         61  56  84  E1      30.05F
#MONUMENT HS    N/A         60  54  81  CALM    29.94S
#MT. VERNON 5SE N/A         56  52  86  NE1     29.94F
$$

ORZ506-301310-
OCHOCO AND JOHN DAY HIGHLANDS

CITY            SKY/WX      TMP DP  RH  WIND    PRES   REMARKS
#BUCK CREEK DOT N/A         59  59  100 CALM    N/A
#HORSE RIDGE DO N/A         52  50  93  CALM    N/A
#KEYES SMT DOT  N/A         54  51  90  SE3     N/A
#PAULINA SCHOOL N/A         56  52  86  CALM    29.95F
#PINE MTN OBS   N/A         56  43  62  SE6     N/A
#PRAIRIE CITY   N/A         56  56  100 CALM    29.97R
#SENECA         N/A         53  N/A N/A SW1     N/A
#SENECA 9NW     N/A         51  50  96  CALM    29.82F
$$

ORZ049-301310-
GRANDE RONDE VALLEY

CITY            SKY/WX      TMP DP  RH  WIND    PRES   REMARKS
LA GRANDE       CLOUDY      57  46  67  CALM    29.95S
#COVE           N/A         57  56  96  CALM    29.96S
#ELGIN 3N       N/A         54  52  93  CALM    29.93F
#ELGIN 1E       N/A         55  50  83  CALM    N/A
#ISLAND CITY 4N N/A         51  48  89  CALM    29.92S
#LADD CYN DOT   N/A         58  54  87  CALM    N/A
#LA GRANDE ELEM N/A         57  54  90  CALM    29.98S
#UNION 1S       N/A         60  54  81  CALM    29.76R
$$

ORZ050-301310-
WALLOWA COUNTY

CITY            SKY/WX      TMP DP  RH  WIND    PRES   REMARKS
JOSEPH AIRPORT  LGT RAIN    55  48  77  W5      30.01R
#ENTERPRISE HS  N/A         55  51  86  NW1     29.99R
#IMNAHA SCHOOL  N/A         62  55  78  CALM    29.92F
#IMNAHA 10S     N/A         54  51  90  SW2     29.94F
#JOSEPH 3N      N/A         54  47  77  W2      30.02R
#JOSEPH 3W      N/A         57  52  83  SW2     29.84F
#LOSTINE        N/A         53  51  93  CALM    29.65S
#MT HOWARD 8000 N/A         50  41  71  S9      30.16S
#PROMISE 1S     N/A         51  50  96  CALM    29.93S
#SHEEP RDG 7000 N/A         51  40  66  CALM    29.82F
#WALLOWA SCHOOL N/A         54  52  93  CALM    30.74F



$$



USA.gov is the U.S. government's official web portal to all federal, state and local government web resources and services.